Lawrence, MA

8:42 AM EST on January 16, 2018 (GMT -0500)
Lawrence Municipal

Weather History for KLWM - April, 2013

Change the Weather History Date:

Thursday, April 11, 2013

  Actual Average Record
Temperature  
Mean Temperature 48 °F -  
Max Temperature 53 °F 52 °F 88 °F (2017)
Min Temperature 43 °F 34 °F 21 °F (1938)
Degree Days  
Heating Degree Days 18    
Moisture  
Dew Point 38 °F    
Average Humidity 73    
Maximum Humidity 93    
Minimum Humidity 37    
Precipitation  
Precipitation 0.08 in - - ()
Sea Level Pressure  
Sea Level Pressure 30.00 in    
Wind  
Wind Speed 6 mph (NNE)    
Max Wind Speed 13 mph    
Max Gust Speed 24 mph    
Visibility 8 miles    
Events Rain    
Averages and records for this station are not official NWS values.
T = Trace of Precipitation, MM = Missing Value Source: NWS Daily Summary

Daily Weather History Graph

Daily Weather History Graph

Search for Another Location

Airport or City:

Trip Planner

Search our weather history database for the weather conditions in past years. The results will help you decide how hot, cold, wet, or windy it might be!

Date:

Astronomy

Apr. 11, 2013 Rise Set
Actual Time 6:09 AM EDT 7:22 PM EDT
Civil Twilight 5:40 AM EDT 7:51 PM EDT
Nautical Twilight 5:05 AM EDT 8:26 PM EDT
Astronomical Twilight 4:28 AM EDT 9:03 PM EDT
Moon 6:37 AM EDT (4/11) 8:56 PM EDT (4/11)
Length of Visible Light 14h 11m
Length of Day
13h 13m
New Moon, 2% of the Moon is Illuminated
Apr 11
New Moon
Apr 18
First Quarter
Apr 25
Full
May 2
Last Quarter
May 9
New

Hourly Weather History & Observations

Time (EDT) Temp. Windchill Dew Point Humidity Pressure Visibility Wind Dir Wind Speed Gust Speed Precip Events Conditions
12:38 AM 48.2 °F - 44.6 °F 87% 29.90 in 8.0 mi ENE 5.8 mph - 0.04 in Rain Light Rain
12:54 AM 48.0 °F - 45.0 °F 89% 29.92 in 8.0 mi NE 5.8 mph - 0.04 in   Overcast
1:11 AM 48.2 °F - 44.6 °F 87% 29.90 in 4.0 mi North - - 0.01 in Rain Light Rain
1:54 AM 48.0 °F - 45.0 °F 89% 29.88 in 3.0 mi East 10.4 mph 24.2 mph 0.04 in Rain Light Rain
2:07 AM 46.4 °F 44.3 °F 44.6 °F 93% 29.87 in 4.0 mi East 4.6 mph - 0.00 in Rain Light Rain
2:18 AM 46.4 °F 43.5 °F 44.6 °F 93% 29.86 in 5.0 mi NE 5.8 mph - 0.00 in   Overcast
2:54 AM 46.9 °F - 44.1 °F 90% 29.86 in 10.0 mi NNE 4.6 mph - 0.00 in   Overcast
3:54 AM 46.9 °F - 44.1 °F 90% 29.88 in 7.0 mi NE 4.6 mph - N/A   Overcast
4:54 AM 46.9 °F - 44.1 °F 90% 29.88 in 4.0 mi NE 5.8 mph - N/A   Overcast
5:54 AM 46.9 °F - 43.0 °F 86% 29.91 in 5.0 mi North 10.4 mph - N/A   Overcast
6:18 AM 46.4 °F 40.7 °F 42.8 °F 87% 29.92 in 8.0 mi NNE 12.7 mph - N/A   Overcast
6:54 AM 46.0 °F 41.0 °F 43.0 °F 89% 29.95 in 10.0 mi NNE 10.4 mph - N/A   Overcast
7:16 AM 46.4 °F 43.5 °F 42.8 °F 87% 29.96 in 10.0 mi NE 5.8 mph - N/A   Overcast
7:54 AM 46.0 °F 42.5 °F 42.1 °F 86% 29.97 in 10.0 mi NE 6.9 mph - N/A   Overcast
8:54 AM 46.0 °F 41.9 °F 43.0 °F 89% 29.98 in 4.0 mi NE 8.1 mph - N/A   Overcast
9:08 AM 46.4 °F 41.9 °F 42.8 °F 87% 29.98 in 5.0 mi NE 9.2 mph - N/A   Overcast
9:40 AM 46.4 °F - 42.8 °F 87% 30.01 in 10.0 mi Calm Calm - N/A   Overcast
9:54 AM 46.9 °F - 42.1 °F 83% 30.01 in 10.0 mi NE 3.5 mph - N/A   Overcast
10:05 AM 46.4 °F - 39.2 °F 76% 30.01 in 10.0 mi Calm Calm - N/A   Overcast
10:54 AM 48.9 °F - 39.9 °F 71% 30.03 in 10.0 mi North 4.6 mph - N/A   Overcast
11:54 AM 50.0 °F - 36.0 °F 59% 30.05 in 10.0 mi NE 4.6 mph - N/A   Overcast
12:54 PM 50.0 °F - 35.6 °F 58% 30.04 in 10.0 mi North 3.5 mph - N/A   Overcast
1:54 PM 52.0 °F - 37.9 °F 59% 30.04 in 10.0 mi East 5.8 mph - N/A   Overcast
2:54 PM 51.1 °F - 37.0 °F 59% 30.04 in 10.0 mi East 4.6 mph - N/A   Overcast
3:54 PM 51.1 °F - 30.9 °F 46% 30.04 in 10.0 mi NNW 4.6 mph - N/A   Overcast
4:54 PM 48.9 °F - 26.1 °F 41% 30.06 in 10.0 mi NNW 10.4 mph - N/A   Overcast
5:54 PM 48.0 °F - 23.0 °F 37% 30.08 in 10.0 mi NNW 10.4 mph - N/A   Overcast
6:54 PM 45.0 °F 40.1 °F 25.0 °F 46% 30.11 in 10.0 mi NNW 9.2 mph - N/A   Overcast
7:54 PM 44.1 °F 41.5 °F 24.1 °F 45% 30.12 in 10.0 mi NNW 4.6 mph - N/A   Overcast
8:54 PM 44.1 °F 42.5 °F 26.1 °F 49% 30.13 in 10.0 mi NNW 3.5 mph - N/A   Overcast
9:54 PM 44.1 °F 42.5 °F 27.0 °F 51% 30.15 in 10.0 mi NNW 3.5 mph - N/A   Overcast
10:54 PM 43.0 °F - 28.0 °F 56% 30.17 in 10.0 mi Calm Calm - 0.00 in   Overcast
11:54 PM 43.0 °F - 28.9 °F 58% 30.17 in 10.0 mi Calm Calm - N/A   Overcast